This is the latest recevied weather packets stored in our database for station/object WC0AA15WX. If no packets are shown the sender has not sent any weather packets the latest 10 day(s).
| Time | Temp. | Humidity | Pressure | Rain* | Wind** | Luminosity | Snow |
|---|---|---|---|---|---|---|---|
| 1777651451 | 15.56° C | 42% | 1024 hPa | 0 mm | - | - | - |
| 1777650851 | 15° C | 46% | 1024 hPa | 0 mm | - | - | - |
| 1777650251 | 14.44° C | 42% | 1023.7 hPa | 0 mm | - | - | - |
| 1777649651 | 14.44° C | 44% | 1023.7 hPa | 0 mm | - | - | - |
| 1777649051 | 13.89° C | 48% | 1023.7 hPa | 0 mm | - | - | - |
| 1777648451 | 13.89° C | 48% | 1023.7 hPa | 0 mm | - | - | - |
| 1777647821 | 13.33° C | 54% | 1024 hPa | 0 mm | - | - | - |
| 1777647191 | 12.22° C | 53% | 1023.7 hPa | 0 mm | - | - | - |
| 1777646591 | 11.67° C | 55% | 1024 hPa | 0 mm | - | - | - |
| 1777645991 | 11.67° C | 59% | 1024 hPa | 0 mm | - | - | - |
| 1777645390 | 11.11° C | 64% | 1024 hPa | 0 mm | - | - | - |
| 1777644790 | 10.56° C | 61% | 1024 hPa | 0 mm | - | - | - |
| 1777644190 | 10.56° C | 66% | 1024 hPa | 0 mm | - | - | - |
| 1777643590 | 9.44° C | 69% | 1024 hPa | 0 mm | - | - | - |
| 1777642990 | 9.44° C | 67% | 1024 hPa | 0 mm | - | - | - |
| 1777642390 | 8.33° C | 76% | 1024 hPa | 0 mm | - | - | - |
| 1777641790 | 7.78° C | 72% | 1024 hPa | 0 mm | - | - | - |
| 1777641190 | 7.78° C | 75% | 1024 hPa | 0 mm | - | - | - |
| 1777640590 | 7.22° C | 75% | 1024.4 hPa | 0 mm | - | - | - |
| 1777639990 | 7.22° C | 77% | 1024.4 hPa | 0 mm | - | - | - |
| 1777639390 | 6.67° C | 76% | 1024.1 hPa | 0 mm | - | - | - |
| 1777638790 | 6.67° C | 75% | 1024 hPa | 0 mm | - | - | - |
| 1777638190 | 6.11° C | 75% | 1024 hPa | 0 mm | - | - | - |
| 1777637590 | 6.11° C | 74% | 1024 hPa | 0 mm | - | - | - |
| 1777636990 | 5.56° C | 75% | 1023.7 hPa | 0 mm | - | - | - |
* Rain latest hour (hover to see other rain measurements)
** Current wind speed in m/s (hover to see current wind gust speed)